Year,Month,Day,Hour,Minute,Value (Times are PST for barometer in hPa)
2006,12,15,00,00,980.87
2006,12,15,00,01,980.87
2006,12,15,00,02,980.87
2006,12,15,00,03,980.87
2006,12,15,00,04,980.90
2006,12,15,00,05,980.87
2006,12,15,00,06,980.90
2006,12,15,00,07,980.97
2006,12,15,00,08,980.97
2006,12,15,00,09,981.00
2006,12,15,00,10,980.97
2006,12,15,00,11,981.00
2006,12,15,00,12,981.04
2006,12,15,00,13,981.00
2006,12,15,00,14,980.97
2006,12,15,00,15,981.00
2006,12,15,00,16,981.04
2006,12,15,00,17,981.00
2006,12,15,00,18,980.97
2006,12,15,00,19,981.00
2006,12,15,00,20,981.00
2006,12,15,00,21,980.97
2006,12,15,00,22,981.00
2006,12,15,00,23,981.00
2006,12,15,00,24,981.04
2006,12,15,00,25,981.04
2006,12,15,00,26,981.04
2006,12,15,00,27,981.04
2006,12,15,00,28,981.07
2006,12,15,00,29,981.14
2006,12,15,00,30,981.14
2006,12,15,00,31,981.14
2006,12,15,00,32,981.17
2006,12,15,00,33,981.18
2006,12,15,00,34,981.24
2006,12,15,00,35,981.27
2006,12,15,00,36,981.27
2006,12,15,00,37,981.27
2006,12,15,00,38,981.27
2006,12,15,00,39,981.27
2006,12,15,00,40,981.28
2006,12,15,00,41,981.38
2006,12,15,00,42,981.38
2006,12,15,00,43,981.38
2006,12,15,00,44,981.44
2006,12,15,00,45,981.44
2006,12,15,00,46,981.44
2006,12,15,00,47,981.48
2006,12,15,00,48,981.51
2006,12,15,00,49,981.51
2006,12,15,00,50,981.52
2006,12,15,00,51,981.58
2006,12,15,00,52,981.58
2006,12,15,00,53,981.58
2006,12,15,00,54,981.58
2006,12,15,00,55,981.61
2006,12,15,00,56,981.65
2006,12,15,00,57,981.71
2006,12,15,00,58,981.75
2006,12,15,00,59,981.75
2006,12,15,01,00,981.78
2006,12,15,01,01,981.88
2006,12,15,01,02,981.92
2006,12,15,01,03,981.95
2006,12,15,01,04,982.00
2006,12,15,01,05,982.09
2006,12,15,01,06,982.20
2006,12,15,01,07,982.33
2006,12,15,01,08,982.44
2006,12,15,01,09,982.67
2006,12,15,01,10,982.90
2006,12,15,01,11,982.95
2006,12,15,01,12,983.10
2006,12,15,01,13,983.06
2006,12,15,01,14,983.25
2006,12,15,01,15,983.51
2006,12,15,01,16,983.51
2006,12,15,01,17,983.52
2006,12,15,01,18,983.59
2006,12,15,01,19,983.79
2006,12,15,01,20,983.88
2006,12,15,01,21,983.92
2006,12,15,01,22,984.03
2006,12,15,01,23,984.12
2006,12,15,01,24,984.22
2006,12,15,01,25,984.20
2006,12,15,01,26,984.42
2006,12,15,01,27,984.48
2006,12,15,01,28,984.43
2006,12,15,01,29,984.52
2006,12,15,01,30,984.45
2006,12,15,01,31,984.73
2006,12,15,01,32,984.80
2006,12,15,01,33,984.91
2006,12,15,01,34,985.07
2006,12,15,01,35,985.08
2006,12,15,01,36,985.18
2006,12,15,01,37,985.38
2006,12,15,01,38,985.44
2006,12,15,01,39,985.51
2006,12,15,01,40,985.54
2006,12,15,01,41,985.54
2006,12,15,01,42,985.64
2006,12,15,01,43,985.73
2006,12,15,01,44,985.88
2006,12,15,01,45,985.95
2006,12,15,01,46,985.98
2006,12,15,01,47,986.03
2006,12,15,01,48,986.12
2006,12,15,01,49,986.23
2006,12,15,01,50,986.35
2006,12,15,01,51,986.35
2006,12,15,01,52,986.43
2006,12,15,01,53,986.56
2006,12,15,01,54,986.56
2006,12,15,01,55,986.57
2006,12,15,01,56,986.43
2006,12,15,01,57,986.66
2006,12,15,01,58,986.62
2006,12,15,01,59,986.66
2006,12,15,02,00,986.77
2006,12,15,02,01,986.92
2006,12,15,02,02,987.05
2006,12,15,02,03,986.94
2006,12,15,02,04,987.10
2006,12,15,02,05,987.17
2006,12,15,02,06,987.14
2006,12,15,02,07,987.24
2006,12,15,02,08,987.38
2006,12,15,02,09,987.48
2006,12,15,02,10,987.55
2006,12,15,02,11,987.72
2006,12,15,02,12,987.78
2006,12,15,02,13,987.79
2006,12,15,02,14,987.91
2006,12,15,02,15,987.95
2006,12,15,02,16,987.96
2006,12,15,02,17,988.05
2006,12,15,02,18,988.05
2006,12,15,02,19,988.11
2006,12,15,02,20,988.12
2006,12,15,02,21,988.32
2006,12,15,02,22,988.29
2006,12,15,02,23,988.39
2006,12,15,02,24,988.42
2006,12,15,02,25,988.46
2006,12,15,02,26,988.59
2006,12,15,02,27,988.59
2006,12,15,02,28,988.60
2006,12,15,02,29,988.72
2006,12,15,02,30,988.77
2006,12,15,02,31,988.84
2006,12,15,02,32,989.00
2006,12,15,02,33,989.03
2006,12,15,02,34,989.10
2006,12,15,02,35,989.20
2006,12,15,02,36,989.27
2006,12,15,02,37,989.34
2006,12,15,02,38,989.50
2006,12,15,02,39,989.57
2006,12,15,02,40,989.64
2006,12,15,02,41,989.72
2006,12,15,02,42,989.82
2006,12,15,02,43,989.94
2006,12,15,02,44,989.98
2006,12,15,02,45,990.09
2006,12,15,02,46,990.19
2006,12,15,02,47,990.35
2006,12,15,02,48,990.39
2006,12,15,02,49,990.45
2006,12,15,02,50,990.50
2006,12,15,02,51,990.62
2006,12,15,02,52,990.62
2006,12,15,02,53,990.72
2006,12,15,02,54,990.82
2006,12,15,02,55,990.86
2006,12,15,02,56,990.97
2006,12,15,02,57,991.06
2006,12,15,02,58,991.13
2006,12,15,02,59,991.09
2006,12,15,03,00,991.13
2006,12,15,03,01,991.23
2006,12,15,03,02,991.26
2006,12,15,03,03,991.33
2006,12,15,03,04,991.37
2006,12,15,03,05,991.43
2006,12,15,03,06,991.43
2006,12,15,03,07,991.50
2006,12,15,03,08,991.51
2006,12,15,03,09,991.60
2006,12,15,03,10,991.70
2006,12,15,03,11,991.70
2006,12,15,03,12,991.70
2006,12,15,03,13,991.75
2006,12,15,03,14,991.88
2006,12,15,03,15,992.01
2006,12,15,03,16,991.99
2006,12,15,03,17,992.14
2006,12,15,03,18,992.15
2006,12,15,03,19,992.25
2006,12,15,03,20,992.26
2006,12,15,03,21,992.35
2006,12,15,03,22,992.42
2006,12,15,03,23,992.48
2006,12,15,03,24,992.55
2006,12,15,03,25,992.55
2006,12,15,03,26,992.65
2006,12,15,03,27,992.72
2006,12,15,03,28,992.76
2006,12,15,03,29,992.92
2006,12,15,03,30,992.99
2006,12,15,03,31,992.99
2006,12,15,03,32,993.09
2006,12,15,03,33,993.13
2006,12,15,03,34,993.19
2006,12,15,03,35,993.26
2006,12,15,03,36,993.27
2006,12,15,03,37,993.36
2006,12,15,03,38,993.43
2006,12,15,03,39,993.50
2006,12,15,03,40,993.57
2006,12,15,03,41,993.53
2006,12,15,03,42,993.57
2006,12,15,03,43,993.58
2006,12,15,03,44,993.70
2006,12,15,03,45,993.67
2006,12,15,03,46,993.70
2006,12,15,03,47,993.71
2006,12,15,03,48,993.77
2006,12,15,03,49,993.79
2006,12,15,03,50,993.75
2006,12,15,03,51,993.95
2006,12,15,03,52,994.11
2006,12,15,03,53,994.21
2006,12,15,03,54,994.18
2006,12,15,03,55,994.28
2006,12,15,03,56,994.18
2006,12,15,03,57,994.18
2006,12,15,03,58,994.21
2006,12,15,03,59,994.21
2006,12,15,04,00,994.21
2006,12,15,04,01,994.18
2006,12,15,04,02,994.21
2006,12,15,04,03,994.22
2006,12,15,04,04,994.38
2006,12,15,04,05,994.35
2006,12,15,04,06,994.38
2006,12,15,04,07,994.45
2006,12,15,04,08,994.46
2006,12,15,04,09,994.55
2006,12,15,04,10,994.56
2006,12,15,04,11,994.72
2006,12,15,04,12,994.68
2006,12,15,04,13,994.75
2006,12,15,04,14,994.79
2006,12,15,04,15,994.75
2006,12,15,04,16,994.79
2006,12,15,04,17,994.76
2006,12,15,04,18,994.90
2006,12,15,04,19,994.99
2006,12,15,04,20,994.96
2006,12,15,04,21,994.92
2006,12,15,04,22,995.02
2006,12,15,04,23,995.05
2006,12,15,04,24,994.97
2006,12,15,04,25,995.12
2006,12,15,04,26,995.19
2006,12,15,04,27,995.23
2006,12,15,04,28,995.26
2006,12,15,04,29,995.20
2006,12,15,04,30,995.29
2006,12,15,04,31,995.29
2006,12,15,04,32,995.40
2006,12,15,04,33,995.33
2006,12,15,04,34,995.40
2006,12,15,04,35,995.46
2006,12,15,04,36,995.47
2006,12,15,04,37,995.56
2006,12,15,04,38,995.60
2006,12,15,04,39,995.53
2006,12,15,04,40,995.56
2006,12,15,04,41,995.63
2006,12,15,04,42,995.64
2006,12,15,04,43,995.77
2006,12,15,04,44,995.80
2006,12,15,04,45,995.84
2006,12,15,04,46,995.94
2006,12,15,04,47,995.91
2006,12,15,04,48,996.11
2006,12,15,04,49,996.21
2006,12,15,04,50,996.21
2006,12,15,04,51,996.28
2006,12,15,04,52,996.32
2006,12,15,04,53,996.48
2006,12,15,04,54,996.51
2006,12,15,04,55,996.55
2006,12,15,04,56,996.55
2006,12,15,04,57,996.62
2006,12,15,04,58,996.75
2006,12,15,04,59,996.78
2006,12,15,05,00,996.83
2006,12,15,05,01,996.95
2006,12,15,05,02,996.92
2006,12,15,05,03,996.92
2006,12,15,05,04,996.99
2006,12,15,05,05,997.00
2006,12,15,05,06,997.16
2006,12,15,05,07,997.19
2006,12,15,05,08,997.26
2006,12,15,05,09,997.27
2006,12,15,05,10,997.36
2006,12,15,05,11,997.40
2006,12,15,05,12,997.50
2006,12,15,05,13,997.51
2006,12,15,05,14,997.77
2006,12,15,05,15,997.70
2006,12,15,05,16,997.71
2006,12,15,05,17,997.80
2006,12,15,05,18,997.80
2006,12,15,05,19,997.87
2006,12,15,05,20,998.07
2006,12,15,05,21,998.10
2006,12,15,05,22,998.11
2006,12,15,05,23,998.31
2006,12,15,05,24,998.24
2006,12,15,05,25,998.31
2006,12,15,05,26,998.38
2006,12,15,05,27,998.44
2006,12,15,05,28,998.51
2006,12,15,05,29,998.44
2006,12,15,05,30,998.51
2006,12,15,05,31,998.54
2006,12,15,05,32,998.59
2006,12,15,05,33,998.68
2006,12,15,05,34,998.77
2006,12,15,05,35,998.66
2006,12,15,05,36,998.76
2006,12,15,05,37,998.85
2006,12,15,05,38,998.88
2006,12,15,05,39,998.88
2006,12,15,05,40,998.92
2006,12,15,05,41,999.02
2006,12,15,05,42,998.99
2006,12,15,05,43,999.05
2006,12,15,05,44,999.12
2006,12,15,05,45,999.15
2006,12,15,05,46,999.19
2006,12,15,05,47,999.20
2006,12,15,05,48,999.30
2006,12,15,05,49,999.46
2006,12,15,05,50,999.49
2006,12,15,05,51,999.53
2006,12,15,05,52,999.56
2006,12,15,05,53,999.64
2006,12,15,05,54,999.80
2006,12,15,05,55,999.83
2006,12,15,05,56,999.93
2006,12,15,05,57,999.93
2006,12,15,05,58,999.97
2006,12,15,05,59,999.98
2006,12,15,06,00,1000.10
2006,12,15,06,01,1000.14
2006,12,15,06,02,1000.14
2006,12,15,06,03,1000.10
2006,12,15,06,04,1000.08
2006,12,15,06,05,1000.18
2006,12,15,06,06,1000.34
2006,12,15,06,07,1000.38
2006,12,15,06,08,1000.51
2006,12,15,06,09,1000.51
2006,12,15,06,10,1000.44
2006,12,15,06,11,1000.48
2006,12,15,06,12,1000.52
2006,12,15,06,13,1000.61
2006,12,15,06,14,1000.68
2006,12,15,06,15,1000.71
2006,12,15,06,16,1000.71
2006,12,15,06,17,1000.78
2006,12,15,06,18,1000.85
2006,12,15,06,19,1000.81
2006,12,15,06,20,1000.88
2006,12,15,06,21,1000.88
2006,12,15,06,22,1000.88
2006,12,15,06,23,1000.92
2006,12,15,06,24,1000.95
2006,12,15,06,25,1000.95
2006,12,15,06,26,1000.95
2006,12,15,06,27,1000.98
2006,12,15,06,28,1001.05
2006,12,15,06,29,1001.12
2006,12,15,06,30,1001.19
2006,12,15,06,31,1001.22
2006,12,15,06,32,1001.32
2006,12,15,06,33,1001.36
2006,12,15,06,34,1001.42
2006,12,15,06,35,1001.46
2006,12,15,06,36,1001.46
2006,12,15,06,37,1001.49
2006,12,15,06,38,1001.52
2006,12,15,06,39,1001.53
2006,12,15,06,40,1001.63
2006,12,15,06,41,1001.66
2006,12,15,06,42,1001.67
2006,12,15,06,43,1001.76
2006,12,15,06,44,1001.80
2006,12,15,06,45,1001.86
2006,12,15,06,46,1001.90
2006,12,15,06,47,1001.93
2006,12,15,06,48,1001.97
2006,12,15,06,49,1001.97
2006,12,15,06,50,1001.97
2006,12,15,06,51,1002.03
2006,12,15,06,52,1002.07
2006,12,15,06,53,1002.10
2006,12,15,06,54,1002.13
2006,12,15,06,55,1002.17
2006,12,15,06,56,1002.25
2006,12,15,06,57,1002.37
2006,12,15,06,58,1002.34
2006,12,15,06,59,1002.41
2006,12,15,07,00,1002.47
2006,12,15,07,01,1002.54
2006,12,15,07,02,1002.57
2006,12,15,07,03,1002.57
2006,12,15,07,04,1002.61
2006,12,15,07,05,1002.68
2006,12,15,07,06,1002.74
2006,12,15,07,07,1002.74
2006,12,15,07,08,1002.81
2006,12,15,07,09,1002.85
2006,12,15,07,10,1002.88
2006,12,15,07,11,1002.98
2006,12,15,07,12,1003.06
2006,12,15,07,13,1003.21
2006,12,15,07,14,1003.14
2006,12,15,07,15,1003.51
2006,12,15,07,16,1003.32
2006,12,15,07,17,1003.35
2006,12,15,07,18,1003.30
2006,12,15,07,19,1003.39
2006,12,15,07,20,1003.42
2006,12,15,07,21,1003.46
2006,12,15,07,22,1003.56
2006,12,15,07,23,1003.53
2006,12,15,07,24,1003.62
2006,12,15,07,25,1003.66
2006,12,15,07,26,1003.76
2006,12,15,07,27,1003.83
2006,12,15,07,28,1003.86
2006,12,15,07,29,1003.93
2006,12,15,07,30,1003.97
2006,12,15,07,31,1004.13
2006,12,15,07,32,1004.10
2006,12,15,07,33,1004.20
2006,12,15,07,34,1004.13
2006,12,15,07,35,1004.31
2006,12,15,07,36,1004.47
2006,12,15,07,37,1004.47
2006,12,15,07,38,1004.40
2006,12,15,07,39,1004.37
2006,12,15,07,40,1004.37
2006,12,15,07,41,1004.40
2006,12,15,07,42,1004.44
2006,12,15,07,43,1004.40
2006,12,15,07,44,1004.41
2006,12,15,07,45,1004.51
2006,12,15,07,46,1004.60
2006,12,15,07,47,1004.51
2006,12,15,07,48,1004.64
2006,12,15,07,49,1004.64
2006,12,15,07,50,1004.67
2006,12,15,07,51,1004.71
2006,12,15,07,52,1004.78
2006,12,15,07,53,1004.78
2006,12,15,07,54,1004.81
2006,12,15,07,55,1004.81
2006,12,15,07,56,1004.88
2006,12,15,07,57,1004.95
2006,12,15,07,58,1004.95
2006,12,15,07,59,1004.95
2006,12,15,08,00,1004.98
2006,12,15,08,01,1005.01
2006,12,15,08,02,1005.05
2006,12,15,08,03,1005.08
2006,12,15,08,04,1005.09
2006,12,15,08,05,1005.18
2006,12,15,08,06,1005.22
2006,12,15,08,07,1005.32
2006,12,15,08,08,1005.35
2006,12,15,08,09,1005.42
2006,12,15,08,10,1005.49
2006,12,15,08,11,1005.55
2006,12,15,08,12,1005.55
2006,12,15,08,13,1005.55
2006,12,15,08,14,1005.59
2006,12,15,08,15,1005.66
2006,12,15,08,16,1005.66
2006,12,15,08,17,1005.72
2006,12,15,08,18,1005.66
2006,12,15,08,19,1005.69
2006,12,15,08,20,1005.72
2006,12,15,08,21,1005.72
2006,12,15,08,22,1005.73
2006,12,15,08,23,1005.83
2006,12,15,08,24,1005.89
2006,12,15,08,25,1005.93
2006,12,15,08,26,1005.96
2006,12,15,08,27,1005.93
2006,12,15,08,28,1005.99
2006,12,15,08,29,1005.99
2006,12,15,08,30,1006.03
2006,12,15,08,31,1006.03
2006,12,15,08,32,1006.03
2006,12,15,08,33,1006.10
2006,12,15,08,34,1006.20
2006,12,15,08,35,1006.20
2006,12,15,08,36,1006.27
2006,12,15,08,37,1006.27
2006,12,15,08,38,1006.27
2006,12,15,08,39,1006.23
2006,12,15,08,40,1006.23
2006,12,15,08,41,1006.27
2006,12,15,08,42,1006.33
2006,12,15,08,43,1006.37
2006,12,15,08,44,1006.28
2006,12,15,08,45,1006.37
2006,12,15,08,46,1006.37
2006,12,15,08,47,1006.40
2006,12,15,08,48,1006.44
2006,12,15,08,49,1006.40
2006,12,15,08,50,1006.34
2006,12,15,08,51,1006.47
2006,12,15,08,52,1006.54
2006,12,15,08,53,1006.50
2006,12,15,08,54,1006.57
2006,12,15,08,55,1006.58
2006,12,15,08,56,1006.67
2006,12,15,08,57,1006.67
2006,12,15,08,58,1006.74
2006,12,15,08,59,1006.77
2006,12,15,09,00,1006.74
2006,12,15,09,01,1006.84
2006,12,15,09,02,1006.84
2006,12,15,09,03,1006.81
2006,12,15,09,04,1006.88
2006,12,15,09,05,1006.88
2006,12,15,09,06,1006.88
2006,12,15,09,07,1006.84
2006,12,15,09,08,1006.88
2006,12,15,09,09,1006.88
2006,12,15,09,10,1006.88
2006,12,15,09,11,1006.84
2006,12,15,09,12,1006.84
2006,12,15,09,13,1006.88
2006,12,15,09,14,1006.84
2006,12,15,09,15,1006.91
2006,12,15,09,16,1006.98
2006,12,15,09,17,1006.94
2006,12,15,09,18,1006.91
2006,12,15,09,19,1006.98
2006,12,15,09,20,1007.04
2006,12,15,09,21,1007.08
2006,12,15,09,22,1007.04
2006,12,15,09,23,1007.09
2006,12,15,09,24,1007.18
2006,12,15,09,25,1007.18
2006,12,15,09,26,1007.21
2006,12,15,09,27,1007.18
2006,12,15,09,28,1007.25
2006,12,15,09,29,1007.28
2006,12,15,09,30,1007.28
2006,12,15,09,31,1007.25
2006,12,15,09,32,1007.32
2006,12,15,09,33,1007.32
2006,12,15,09,34,1007.42
2006,12,15,09,35,1007.48
2006,12,15,09,36,1007.48
2006,12,15,09,37,1007.52
2006,12,15,09,38,1007.55
2006,12,15,09,39,1007.62
2006,12,15,09,40,1007.76
2006,12,15,09,41,1007.72
2006,12,15,09,42,1007.79
2006,12,15,09,43,1007.79
2006,12,15,09,44,1007.86
2006,12,15,09,45,1007.93
2006,12,15,09,46,1007.99
2006,12,15,09,47,1008.03
2006,12,15,09,48,1008.16
2006,12,15,09,49,1008.16
2006,12,15,09,50,1008.13
2006,12,15,09,51,1008.20
2006,12,15,09,52,1008.23
2006,12,15,09,53,1008.37
2006,12,15,09,54,1008.41
2006,12,15,09,55,1008.50
2006,12,15,09,56,1008.47
2006,12,15,09,57,1008.48
2006,12,15,09,58,1008.60
2006,12,15,09,59,1008.58
2006,12,15,10,00,1008.67
2006,12,15,10,01,1008.64
2006,12,15,10,02,1008.67
2006,12,15,10,03,1008.67
2006,12,15,10,04,1008.70
2006,12,15,10,05,1008.74
2006,12,15,10,06,1008.74
2006,12,15,10,07,1008.77
2006,12,15,10,08,1008.81
2006,12,15,10,09,1008.84
2006,12,15,10,10,1008.87
2006,12,15,10,11,1008.87
2006,12,15,10,12,1008.91
2006,12,15,10,13,1008.91
2006,12,15,10,14,1008.87
2006,12,15,10,15,1008.94
2006,12,15,10,16,1008.94
2006,12,15,10,17,1008.98
2006,12,15,10,18,1009.08
2006,12,15,10,19,1009.11
2006,12,15,10,20,1009.08
2006,12,15,10,21,1009.18
2006,12,15,10,22,1009.14
2006,12,15,10,23,1009.18
2006,12,15,10,24,1009.21
2006,12,15,10,25,1009.15
2006,12,15,10,26,1009.31
2006,12,15,10,27,1009.25
2006,12,15,10,28,1009.31
2006,12,15,10,29,1009.25
2006,12,15,10,30,1009.28
2006,12,15,10,31,1009.31
2006,12,15,10,32,1009.38
2006,12,15,10,33,1009.38
2006,12,15,10,34,1009.38
2006,12,15,10,35,1009.42
2006,12,15,10,36,1009.39
2006,12,15,10,37,1009.48
2006,12,15,10,38,1009.35
2006,12,15,10,39,1009.41
2006,12,15,10,40,1009.31
2006,12,15,10,41,1009.31
2006,12,15,10,42,1009.28
2006,12,15,10,43,1009.21
2006,12,15,10,44,1009.28
2006,12,15,10,45,1009.28
2006,12,15,10,46,1009.31
2006,12,15,10,47,1009.38
2006,12,15,10,48,1009.35
2006,12,15,10,49,1009.28
2006,12,15,10,50,1009.38
2006,12,15,10,51,1009.38
2006,12,15,10,52,1009.38
2006,12,15,10,53,1009.42
2006,12,15,10,54,1009.45
2006,12,15,10,55,1009.48
2006,12,15,10,56,1009.52
2006,12,15,10,57,1009.58
2006,12,15,10,58,1009.55
2006,12,15,10,59,1009.52
2006,12,15,11,00,1009.58
2006,12,15,11,01,1009.55
2006,12,15,11,02,1009.65
2006,12,15,11,03,1009.72
2006,12,15,11,04,1009.65
2006,12,15,11,05,1009.82
2006,12,15,11,06,1009.75
2006,12,15,11,07,1009.75
2006,12,15,11,08,1009.75
2006,12,15,11,09,1009.79
2006,12,15,11,10,1009.75
2006,12,15,11,11,1009.79
2006,12,15,11,12,1009.82
2006,12,15,11,13,1009.82
2006,12,15,11,14,1009.86
2006,12,15,11,15,1009.96
2006,12,15,11,16,1010.02
2006,12,15,11,17,1009.96
2006,12,15,11,18,1009.99
2006,12,15,11,19,1010.02
2006,12,15,11,20,1010.06
2006,12,15,11,21,1010.06
2006,12,15,11,22,1010.09
2006,12,15,11,23,1010.13
2006,12,15,11,24,1010.19
2006,12,15,11,25,1010.13
2006,12,15,11,26,1010.19
2006,12,15,11,27,1010.19
2006,12,15,11,28,1010.19
2006,12,15,11,29,1010.26
2006,12,15,11,30,1010.26
2006,12,15,11,31,1010.26
2006,12,15,11,32,1010.40
2006,12,15,11,33,1010.43
2006,12,15,11,34,1010.50
2006,12,15,11,35,1010.50
2006,12,15,11,36,1010.50
2006,12,15,11,37,1010.57
2006,12,15,11,38,1010.67
2006,12,15,11,39,1010.60
2006,12,15,11,40,1010.70
2006,12,15,11,41,1010.70
2006,12,15,11,42,1010.70
2006,12,15,11,43,1010.77
2006,12,15,11,44,1010.70
2006,12,15,11,45,1010.80
2006,12,15,11,46,1010.84
2006,12,15,11,47,1010.91
2006,12,15,11,48,1010.87
2006,12,15,11,49,1010.91
2006,12,15,11,50,1010.94
2006,12,15,11,51,1011.02
2006,12,15,11,52,1011.11
2006,12,15,11,53,1011.07
2006,12,15,11,54,1011.04
2006,12,15,11,55,1011.08
2006,12,15,11,56,1011.18
2006,12,15,11,57,1011.11
2006,12,15,11,58,1011.14
2006,12,15,11,59,1011.21
2006,12,15,12,00,1011.28
2006,12,15,12,01,1011.22
2006,12,15,12,02,1011.31
2006,12,15,12,03,1011.35
2006,12,15,12,04,1011.32
2006,12,15,12,05,1011.48
2006,12,15,12,06,1011.58
2006,12,15,12,07,1011.55
2006,12,15,12,08,1011.51
2006,12,15,12,09,1011.55
2006,12,15,12,10,1011.51
2006,12,15,12,11,1011.48
2006,12,15,12,12,1011.58
2006,12,15,12,13,1011.58
2006,12,15,12,14,1011.55
2006,12,15,12,15,1011.58
2006,12,15,12,16,1011.55
2006,12,15,12,17,1011.58
2006,12,15,12,18,1011.58
2006,12,15,12,19,1011.65
2006,12,15,12,20,1011.58
2006,12,15,12,21,1011.65
2006,12,15,12,22,1011.65
2006,12,15,12,23,1011.65
2006,12,15,12,24,1011.72
2006,12,15,12,25,1011.79
2006,12,15,12,26,1011.79
2006,12,15,12,27,1011.85
2006,12,15,12,28,1011.89
2006,12,15,12,29,1011.89
2006,12,15,12,30,1011.85
2006,12,15,12,31,1011.89
2006,12,15,12,32,1011.95
2006,12,15,12,33,1011.95
2006,12,15,12,34,1011.85
2006,12,15,12,35,1011.85
2006,12,15,12,36,1011.92
2006,12,15,12,37,1011.92
2006,12,15,12,38,1011.99
2006,12,15,12,39,1011.99
2006,12,15,12,40,1012.02
2006,12,15,12,41,1012.06
2006,12,15,12,42,1011.99
2006,12,15,12,43,1012.02
2006,12,15,12,44,1012.06
2006,12,15,12,45,1012.06
2006,12,15,12,46,1012.09
2006,12,15,12,47,1012.12
2006,12,15,12,48,1012.09
2006,12,15,12,49,1012.12
2006,12,15,12,50,1012.16
2006,12,15,12,51,1012.12
2006,12,15,12,52,1012.16
2006,12,15,12,53,1012.12
2006,12,15,12,54,1012.16
2006,12,15,12,55,1012.19
2006,12,15,12,56,1012.16
2006,12,15,12,57,1012.19
2006,12,15,12,58,1012.23
2006,12,15,12,59,1012.19
2006,12,15,13,00,1012.26
2006,12,15,13,01,1012.36
2006,12,15,13,02,1012.36
2006,12,15,13,03,1012.33
2006,12,15,13,04,1012.43
2006,12,15,13,05,1012.43
2006,12,15,13,06,1012.43
2006,12,15,13,07,1012.50
2006,12,15,13,08,1012.53
2006,12,15,13,09,1012.56
2006,12,15,13,10,1012.63
2006,12,15,13,11,1012.63
2006,12,15,13,12,1012.64
2006,12,15,13,13,1012.73
2006,12,15,13,14,1012.73
2006,12,15,13,15,1012.77
2006,12,15,13,16,1012.78
2006,12,15,13,17,1012.87
2006,12,15,13,18,1012.80
2006,12,15,13,19,1012.80
2006,12,15,13,20,1012.84
2006,12,15,13,21,1012.87
2006,12,15,13,22,1012.84
2006,12,15,13,23,1012.87
2006,12,15,13,24,1012.84
2006,12,15,13,25,1012.87
2006,12,15,13,26,1012.84
2006,12,15,13,27,1012.87
2006,12,15,13,28,1012.84
2006,12,15,13,29,1012.87
2006,12,15,13,30,1012.90
2006,12,15,13,31,1012.84
2006,12,15,13,32,1012.94
2006,12,15,13,33,1012.97
2006,12,15,13,34,1013.00
2006,12,15,13,35,1013.00
2006,12,15,13,36,1013.07
2006,12,15,13,37,1013.11
2006,12,15,13,38,1013.14
2006,12,15,13,39,1013.11
2006,12,15,13,40,1013.14
2006,12,15,13,41,1013.17
2006,12,15,13,42,1013.21
2006,12,15,13,43,1013.24
2006,12,15,13,44,1013.28
2006,12,15,13,45,1013.38
2006,12,15,13,46,1013.38
2006,12,15,13,47,1013.38
2006,12,15,13,48,1013.41
2006,12,15,13,49,1013.51
2006,12,15,13,50,1013.51
2006,12,15,13,51,1013.48
2006,12,15,13,52,1013.58
2006,12,15,13,53,1013.58
2006,12,15,13,54,1013.58
2006,12,15,13,55,1013.58
2006,12,15,13,56,1013.65
2006,12,15,13,57,1013.68
2006,12,15,13,58,1013.78
2006,12,15,13,59,1013.78
2006,12,15,14,00,1013.78
2006,12,15,14,01,1013.75
2006,12,15,14,02,1013.82
2006,12,15,14,03,1013.82
2006,12,15,14,04,1013.82
2006,12,15,14,05,1013.85
2006,12,15,14,06,1013.92
2006,12,15,14,07,1013.89
2006,12,15,14,08,1013.89
2006,12,15,14,09,1013.92
2006,12,15,14,10,1013.92
2006,12,15,14,11,1013.89
2006,12,15,14,12,1013.92
2006,12,15,14,13,1013.85
2006,12,15,14,14,1013.92
2006,12,15,14,15,1013.92
2006,12,15,14,16,1013.92
2006,12,15,14,17,1013.92
2006,12,15,14,18,1013.95
2006,12,15,14,19,1013.92
2006,12,15,14,20,1013.92
2006,12,15,14,21,1013.92
2006,12,15,14,22,1013.99
2006,12,15,14,23,1013.99
2006,12,15,14,24,1013.96
2006,12,15,14,25,1014.05
2006,12,15,14,26,1014.02
2006,12,15,14,27,1014.05
2006,12,15,14,28,1014.05
2006,12,15,14,29,1014.09
2006,12,15,14,30,1014.09
2006,12,15,14,31,1014.05
2006,12,15,14,32,1014.09
2006,12,15,14,33,1014.12
2006,12,15,14,34,1014.19
2006,12,15,14,35,1014.19
2006,12,15,14,36,1014.22
2006,12,15,14,37,1014.22
2006,12,15,14,38,1014.22
2006,12,15,14,39,1014.26
2006,12,15,14,40,1014.29
2006,12,15,14,41,1014.29
2006,12,15,14,42,1014.33
2006,12,15,14,43,1014.36
2006,12,15,14,44,1014.43
2006,12,15,14,45,1014.33
2006,12,15,14,46,1014.36
2006,12,15,14,47,1014.33
2006,12,15,14,48,1014.33
2006,12,15,14,49,1014.34
2006,12,15,14,50,1014.46
2006,12,15,14,51,1014.46
2006,12,15,14,52,1014.43
2006,12,15,14,53,1014.44
2006,12,15,14,54,1014.56
2006,12,15,14,55,1014.53
2006,12,15,14,56,1014.56
2006,12,15,14,57,1014.60
2006,12,15,14,58,1014.60
2006,12,15,14,59,1014.60
2006,12,15,15,00,1014.63
2006,12,15,15,01,1014.53
2006,12,15,15,02,1014.53
2006,12,15,15,03,1014.56
2006,12,15,15,04,1014.56
2006,12,15,15,05,1014.53
2006,12,15,15,06,1014.53
2006,12,15,15,07,1014.53
2006,12,15,15,08,1014.56
2006,12,15,15,09,1014.56
2006,12,15,15,10,1014.60
2006,12,15,15,11,1014.60
2006,12,15,15,12,1014.70
2006,12,15,15,13,1014.66
2006,12,15,15,14,1014.60
2006,12,15,15,15,1014.63
2006,12,15,15,16,1014.60
2006,12,15,15,17,1014.66
2006,12,15,15,18,1014.66
2006,12,15,15,19,1014.70
2006,12,15,15,20,1014.70
2006,12,15,15,21,1014.70
2006,12,15,15,22,1014.70
2006,12,15,15,23,1014.73
2006,12,15,15,24,1014.73
2006,12,15,15,25,1014.77
2006,12,15,15,26,1014.73
2006,12,15,15,27,1014.73
2006,12,15,15,28,1014.77
2006,12,15,15,29,1014.90
2006,12,15,15,30,1014.83
2006,12,15,15,31,1014.90
2006,12,15,15,32,1014.93
2006,12,15,15,33,1014.97
2006,12,15,15,34,1015.00
2006,12,15,15,35,1015.00
2006,12,15,15,36,1015.04
2006,12,15,15,37,1015.04
2006,12,15,15,38,1015.00
2006,12,15,15,39,1015.04
2006,12,15,15,40,1015.10
2006,12,15,15,41,1015.10
2006,12,15,15,42,1015.07
2006,12,15,15,43,1015.10
2006,12,15,15,44,1015.07
2006,12,15,15,45,1015.07
2006,12,15,15,46,1015.10
2006,12,15,15,47,1015.07
2006,12,15,15,48,1015.10
2006,12,15,15,49,1015.10
2006,12,15,15,50,1015.10
2006,12,15,15,51,1015.10
2006,12,15,15,52,1015.10
2006,12,15,15,53,1015.07
2006,12,15,15,54,1015.14
2006,12,15,15,55,1015.17
2006,12,15,15,56,1015.24
2006,12,15,15,57,1015.17
2006,12,15,15,58,1015.21
2006,12,15,15,59,1015.17
2006,12,15,16,00,1015.21
2006,12,15,16,01,1015.27
2006,12,15,16,02,1015.24
2006,12,15,16,03,1015.24
2006,12,15,16,04,1015.24
2006,12,15,16,05,1015.31
2006,12,15,16,06,1015.31
2006,12,15,16,07,1015.31
2006,12,15,16,08,1015.34
2006,12,15,16,09,1015.38
2006,12,15,16,10,1015.38